When you browse on this site, cookies collect data to enhance your experience and personalize the content and advertising you see.
Visit our Privacy Policy to learn more. By continuing to use the site, you agree to this use of cookies and data.
  • In Lithuania
  • List of Countries
  • For 7 days
  • Water Temperature
  • Satellite Maps
  • Weather Map
  • Weather Widgets
  • user-avatar
    Login

    Hourly Weather Tolkovo

    Today, 23 April, Tuesday

    Time Temperature Precipitation Wind Pressure Humidity
    00:00 +8°C° 0 mm 3 mps 757 mmHg 58%
    01:00 +7°C° 0 mm 3 mps 757 mmHg 59%
    02:00 +7°C° 0 mm 3 mps 757 mmHg 60%
    03:00 +7°C° 0 mm 3 mps 757 mmHg 62%
    04:00 +7°C° 0 mm 3 mps 757 mmHg 63%
    05:00 +5°C° 0 mm 3 mps 757 mmHg 64%
    06:00 +8°C° 0 mm 3 mps 757 mmHg 61%
    07:00 +10°C° 0 mm 4 mps 757 mmHg 59%
    08:00 +12°C° 0 mm 4 mps 757 mmHg 57%
    09:00 +13°C° 0 mm 5 mps 757 mmHg 50%
    10:00 +15°C° 0 mm 6 mps 757 mmHg 43%
    11:00 +16°C° 0 mm 7 mps 757 mmHg 36%
    12:00 +17°C° 0 mm 7 mps 757 mmHg 36%
    13:00 +17°C° 0 mm 7 mps 757 mmHg 36%
    14:00 +18°C° 0 mm 7 mps 756 mmHg 35%
    15:00 +17°C° 0 mm 7 mps 756 mmHg 37%
    16:00 +17°C° 0 mm 7 mps 756 mmHg 39%
    17:00 +17°C° 0 mm 6 mps 755 mmHg 41%
    18:00 +15°C° 0 mm 6 mps 755 mmHg 45%
    19:00 +13°C° 0 mm 5 mps 755 mmHg 49%
    20:00 +12°C° 0 mm 4 mps 755 mmHg 53%
    21:00 +11°C° 0 mm 4 mps 755 mmHg 54%
    22:00 +10°C° 0 mm 5 mps 755 mmHg 55%
    23:00 +9°C° 0 mm 5 mps 755 mmHg 55%

    Tomorrow, 24 April, Wednesday

    Time Temperature Precipitation Wind Pressure Humidity
    00:00 +9°C° 0 mm 5 mps 755 mmHg 57%
    01:00 +8°C° 0 mm 5 mps 756 mmHg 58%
    02:00 +8°C° 0 mm 5 mps 756 mmHg 60%
    03:00 +8°C° 0 mm 5 mps 755 mmHg 61%
    04:00 +7°C° 0 mm 5 mps 755 mmHg 63%
    05:00 +7°C° 0 mm 5 mps 755 mmHg 64%
    06:00 +8°C° 0 mm 6 mps 755 mmHg 61%
    07:00 +10°C° 0 mm 7 mps 755 mmHg 57%
    08:00 +11°C° 0 mm 8 mps 755 mmHg 53%
    09:00 +12°C° 0 mm 8 mps 755 mmHg 50%
    10:00 +13°C° 0 mm 9 mps 755 mmHg 46%
    11:00 +16°C° 0 mm 9 mps 755 mmHg 43%
    12:00 +16°C° 0 mm 9 mps 755 mmHg 42%
    13:00 +17°C° 0 mm 9 mps 755 mmHg 42%
    14:00 +18°C° 0 mm 8 mps 754 mmHg 41%
    15:00 +17°C° 0 mm 8 mps 754 mmHg 42%
    16:00 +17°C° 0 mm 7 mps 754 mmHg 44%
    17:00 +17°C° 0 mm 7 mps 754 mmHg 45%
    18:00 +16°C° 0 mm 6 mps 754 mmHg 49%
    19:00 +14°C° 0 mm 5 mps 754 mmHg 53%
    20:00 +13°C° 0 mm 4 mps 754 mmHg 56%
    21:00 +12°C° 0 mm 4 mps 754 mmHg 58%
    22:00 +11°C° 0 mm 4 mps 754 mmHg 60%
    23:00 +10°C° 0 mm 5 mps 754 mmHg 62%

    Day after tomorrow, 25 April, Thursday

    Time Temperature Precipitation Wind Pressure Humidity
    00:00 +10°C° 0 mm 5 mps 754 mmHg 63%
    01:00 +9°C° 0 mm 5 mps 754 mmHg 65%
    02:00 +9°C° 0 mm 5 mps 754 mmHg 66%
    03:00 +9°C° 0 mm 5 mps 754 mmHg 68%
    04:00 +8°C° 0 mm 5 mps 754 mmHg 69%
    05:00 +8°C° 0 mm 5 mps 754 mmHg 71%
    06:00 +9°C° 0 mm 5 mps 754 mmHg 69%
    07:00 +10°C° 0 mm 6 mps 754 mmHg 68%
    08:00 +11°C° 0 mm 6 mps 753 mmHg 66%
    09:00 +14°C° 0 mm 6 mps 753 mmHg 63%
    10:00 +16°C° 0 mm 6 mps 753 mmHg 60%
    11:00 +17°C° 0 mm 6 mps 753 mmHg 56%
    12:00 +20°C° 0 mm 6 mps 753 mmHg 54%
    13:00 +21°C° 0 mm 6 mps 753 mmHg 52%
    14:00 +22°C° 0 mm 6 mps 753 mmHg 50%
    15:00 +22°C° 0 mm 6 mps 752 mmHg 51%
    16:00 +21°C° 0 mm 6 mps 752 mmHg 51%
    17:00 +21°C° 0 mm 6 mps 752 mmHg 52%
    18:00 +19°C° 0 mm 5 mps 752 mmHg 57%
    19:00 +18°C° 0 mm 4 mps 752 mmHg 61%
    20:00 +15°C° 0 mm 4 mps 752 mmHg 65%
    21:00 +14°C° 0 mm 4 mps 751 mmHg 67%
    22:00 +14°C° 0 mm 4 mps 751 mmHg 68%
    23:00 +13°C° 0 mm 4 mps 751 mmHg 69%

    26 April, Friday

    Time Temperature Precipitation Wind Pressure Humidity
    00:00 +12°C° 0 mm 4 mps 751 mmHg 72%
    01:00 +12°C° 0 mm 4 mps 751 mmHg 74%
    02:00 +11°C° 0 mm 4 mps 751 mmHg 77%
    03:00 +11°C° 0 mm 4 mps 751 mmHg 78%
    04:00 +11°C° 0 mm 4 mps 751 mmHg 80%
    05:00 +10°C° 0 mm 4 mps 750 mmHg 82%
    06:00 +11°C° 0 mm 4 mps 750 mmHg 80%
    07:00 +13°C° 0 mm 5 mps 750 mmHg 78%
    08:00 +14°C° 0 mm 5 mps 750 mmHg 77%
    09:00 +16°C° 0 mm 5 mps 750 mmHg 73%
    10:00 +17°C° 0 mm 5 mps 749 mmHg 69%
    11:00 +20°C° 0 mm 5 mps 749 mmHg 65%
    12:00 +22°C° 0 mm 5 mps 749 mmHg 61%
    13:00 +23°C° 0 mm 5 mps 749 mmHg 58%
    14:00 +25°C° 0 mm 5 mps 748 mmHg 54%
    15:00 +25°C° 0 mm 5 mps 748 mmHg 54%
    16:00 +25°C° 0 mm 5 mps 748 mmHg 55%
    17:00 +25°C° 0 mm 5 mps 747 mmHg 55%
    18:00 +22°C° 0.6 mm 5 mps 747 mmHg 63%
    19:00 +20°C° 0.6 mm 5 mps 747 mmHg 71%
    20:00 +18°C° 0.6 mm 4 mps 747 mmHg 79%
    21:00 +17°C° 1 mm 5 mps 747 mmHg 81%
    22:00 +16°C° 1 mm 5 mps 747 mmHg 83%
    23:00 +16°C° 1 mm 5 mps 747 mmHg 85%

    27 April, Saturday

    Time Temperature Precipitation Wind Pressure Humidity
    00:00 +15°C° 1.3 mm 5 mps 747 mmHg 87%
    01:00 +14°C° 1.3 mm 4 mps 747 mmHg 89%
    02:00 +14°C° 1.3 mm 4 mps 746 mmHg 91%
    03:00 +14°C° 0 mm 4 mps 746 mmHg 92%
    04:00 +13°C° 0 mm 3 mps 746 mmHg 93%
    05:00 +13°C° 0 mm 3 mps 746 mmHg 93%
    06:00 +14°C° 0 mm 3 mps 746 mmHg 90%
    07:00 +15°C° 0 mm 4 mps 746 mmHg 86%
    08:00 +17°C° 0 mm 4 mps 746 mmHg 82%
    09:00 +19°C° 0 mm 4 mps 745 mmHg 77%
    10:00 +20°C° 0 mm 4 mps 745 mmHg 71%
    11:00 +22°C° 0 mm 4 mps 745 mmHg 66%
    12:00 +23°C° 0 mm 4 mps 745 mmHg 61%
    13:00 +25°C° 0 mm 4 mps 745 mmHg 57%
    14:00 +26°C° 0 mm 4 mps 744 mmHg 52%
    15:00 +26°C° 1.1 mm 4 mps 744 mmHg 56%
    16:00 +25°C° 1.1 mm 4 mps 744 mmHg 59%
    17:00 +23°C° 1.1 mm 4 mps 744 mmHg 62%
    18:00 +21°C° 0.5 mm 3 mps 744 mmHg 70%
    19:00 +19°C° 0.5 mm 3 mps 744 mmHg 77%
    20:00 +18°C° 0.5 mm 2 mps 745 mmHg 85%
    21:00 +17°C° 0.2 mm 2 mps 745 mmHg 86%
    22:00 +18°C° 0.2 mm 1 mps 745 mmHg 87%
    23:00 +16°C° 0.2 mm 1 mps 745 mmHg 88%

    28 April, Sunday

    Time Temperature Precipitation Wind Pressure Humidity
    00:00 +16°C° 0 mm 1 mps 745 mmHg 89%
    01:00 +16°C° 0 mm 1 mps 745 mmHg 90%
    02:00 +15°C° 0 mm 1 mps 745 mmHg 91%
    03:00 +15°C° 0.2 mm 2 mps 745 mmHg 93%
    04:00 +14°C° 0.2 mm 2 mps 745 mmHg 95%
    05:00 +13°C° 0.2 mm 3 mps 745 mmHg 97%
    06:00 +13°C° 0.4 mm 3 mps 745 mmHg 95%
    07:00 +14°C° 0.4 mm 3 mps 745 mmHg 93%
    08:00 +14°C° 0.4 mm 4 mps 746 mmHg 92%
    09:00 +14°C° 0.1 mm 4 mps 746 mmHg 91%
    10:00 +14°C° 0.1 mm 4 mps 746 mmHg 90%
    11:00 +14°C° 0.1 mm 5 mps 746 mmHg 89%
    12:00 +14°C° 0.1 mm 5 mps 746 mmHg 89%
    13:00 +13°C° 0.1 mm 6 mps 747 mmHg 89%
    14:00 +13°C° 0.1 mm 6 mps 747 mmHg 89%
    15:00 +13°C° 0.4 mm 6 mps 747 mmHg 88%
    16:00 +11°C° 0.4 mm 6 mps 747 mmHg 87%
    17:00 +11°C° 0.4 mm 6 mps 747 mmHg 87%
    18:00 +11°C° 1.4 mm 6 mps 747 mmHg 88%
    19:00 +10°C° 1.4 mm 6 mps 748 mmHg 90%
    20:00 +9°C° 1.4 mm 5 mps 748 mmHg 91%
    21:00 +9°C° 2.3 mm 6 mps 748 mmHg 92%
    22:00 +8°C° 2.3 mm 6 mps 748 mmHg 92%
    23:00 +7°C° 2.3 mm 6 mps 748 mmHg 93%
    Show more